Hourly Data Report for April 27, 2015

All times are specified in Local Standard Time (LST). Add 1 hour to adjust for Daylight Saving Time where and when it is observed.

Metadata including Station Name, Province, Latitude, Longitude, Elevation, Climate ID, WMO ID, TC ID
PUVIRNITUQ A
QUEBEC
Latitude: 60°03'08.000" N Longitude: 77°17'15.000" W Elevation: 25.30 m
Climate ID: 7106223 WMO ID: TC ID: YPX
Hourly Data Report for April 27, 2015
Temp Definition
°C

Dew Point Temp Definition
°C

Rel Hum Definition
%

Wind Dir Definition
10's deg
Wind Spd Definition
km/h

Visibility Definition
km

Stn Press Definition
kPa

Hmdx Definition

Wind Chill Definition

Weather Definition

00:00 Legend Double Dagger 0.9 0.3 96 11 8 16.1 102.43 LegendNANA
01:00 Legend Double Dagger 1.1 0.5 96 14 5 16.1 102.43 LegendNANA
02:00 Legend Double Dagger 0.9 0.3 96   0 16.1 102.43 LegendNANA
03:00 Legend Double Dagger 0.7 0.3 97   0 16.1 102.42 LegendNANA
04:00 Legend Double Dagger 0.5 0.2 98 6 4 16.1 102.42 LegendNANA
05:00 Legend Double Dagger 0.7 0.4 98 9 8 16.1 102.42 LegendNANA
06:00 Legend Double Dagger 0.7 0.4 98 LegendMM 4 16.1 102.43 LegendNANA
07:00 Legend Double Dagger 0.7 0.4 98 31 8 16.1 102.44 LegendNANA
08:00 Legend Double Dagger 1.3 0.7 96 4 5 16.1 102.43 LegendNANA
09:00 Legend Double Dagger 2.1 1.0 92   0 16.1 102.41 LegendNANA
10:00 Legend Double Dagger 2.2 0.9 91 31 5 16.1 102.41 LegendNANA
11:00 Legend Double Dagger 1.8 0.6 92 32 9 16.1 102.40 LegendNANA
12:00 Legend Double Dagger 2.3 1.0 91 1 8 16.1 102.37 LegendNANA
13:00 Legend Double Dagger 3.1 1.2 87 34 8 16.1 102.36 LegendNANA
14:00 Legend Double Dagger 2.9 1.1 88 34 11 16.1 102.34 LegendNANA
15:00 Legend Double Dagger 2.5 1.0 90 35 15 16.1 102.30 LegendNANA
16:00 Legend Double Dagger 2.5 1.0 90 36 13 16.1 102.25 LegendNANA
17:00 Legend Double Dagger 2.9 1.3 89 36 9 16.1 102.21 LegendNANA
18:00 Legend Double Dagger 1.7 0.8 94 35 18 16.1 102.18 LegendNANA
19:00 Legend Double Dagger 1.3 0.6 95 36 15 16.1 102.14 LegendNANA
20:00 Legend Double Dagger 1.0 0.4 96 1 17 16.1 102.12 LegendNANA
21:00 Legend Double Dagger 0.8 0.4 97 36 15 16.1 102.11 LegendNANA
22:00 Legend Double Dagger 0.7 0.4 98 35 13 16.1 102.09 LegendNANA
23:00 Legend Double Dagger 0.6 0.5 99 36 21 16.1 102.03 Rain

Notes on Data Quality.

Legend
  • E = Estimated
  • M = Missing
  • NA = Not Available
  • ‡ = Partner data that is not subject to review by the National Climate Archives